Location: Kernascl�den
(48.0062°N, 3.3198°W)
Time: 22:21:52
(UTC+00:00)

USA 281 - Pass Details

Date: 21 January 2021
Orbit: 1072 x 1086 km, 106.0° (Epoch: 26 February)

Event Time Altitude Azimuth Distance (km) Brightness Sun altitude
Exits shadow 20:39:28 31° 347° (NNW) 1,808 4.5 -36.9°
Drops below altitude 10° 20:42:42 10° 339° (NNW) 2,941 5.8 -37.4°
Sets 20:45:14 0° 337° (NNW) 3,900 6.6 -37.8°
